Hourly Data Report for October 13, 2015

All times are specified in Local Standard Time (LST). Add 1 hour to adjust for Daylight Saving Time where and when it is observed.

RANKIN INLET A
NUNAVUT

62°48'38.000" N
92°06'53.000" W
32.30 m
2303405
71083
YRT

Download Data

Hourly Data (October 2015)
Hourly Data Report for October 13, 2015
Temp Definition
°C
Dew Point Temp Definition
°C
Rel Hum Definition
%
Wind Dir Definition
10's deg

Wind Spd Definition
km/h
Visibility Definition
km
Stn Press Definition
kPa
Hmdx Definition


Wind Chill Definition


Weather Definition


TIME
00:00 Legend Double Dagger -5.8 -8.7 80 31 30 24.1 100.16   -14 Mostly Cloudy
01:00 Legend Double Dagger -6.0 -9.1 79 31 33 24.1 100.19   -15 LegendNANA
02:00 Legend Double Dagger -7.3 -10.2 80 32 25 24.1 100.21   -15 LegendNANA
03:00 Legend Double Dagger -7.8 -10.4 82 33 38 24.1 100.19   -18 Mostly Cloudy
04:00 Legend Double Dagger -7.5 -9.9 83 32 36 24.1 100.20   -17 LegendNANA
05:00 Legend Double Dagger -7.3 -9.9 82 35 27 24.1 100.21   -16 LegendNANA
06:00 Legend Double Dagger -7.0 -9.4 83 34 26 24.1 100.27   -15 Mostly Cloudy
07:00 Legend Double Dagger -7.7 -10.4 81 34 30 24.1 100.28   -17 LegendNANA
08:00 Legend Double Dagger -8.0 -10.4 83 34 27 24.1 100.29   -16 LegendNANA
09:00 Legend Double Dagger -7.8 -10.5 81 35 24 24.1 100.34   -16 Mainly Clear
10:00 Legend Double Dagger -6.8 -9.7 80 34 17 24.1 100.37   -13 LegendNANA
11:00 Legend Double Dagger -6.4 -10.8 71 34 25 24.1 100.36   -14 LegendNANA
12:00 Legend Double Dagger -6.7 -10.9 72 33 22 24.1 100.38   -14 Mostly Cloudy
13:00 Legend Double Dagger -7.6 -12.0 71 32 24 24.1 100.40   -16 LegendNANA
14:00 Legend Double Dagger -7.2 -11.6 71 33 21 24.1 100.40   -15 LegendNANA
15:00 Legend Double Dagger -7.1 -11.5 71 31 18 24.1 100.42   -14 Mostly Cloudy
16:00 Legend Double Dagger -7.6 -12.0 71 35 14 24.1 100.45   -14 LegendNANA
17:00 Legend Double Dagger -7.7 -11.7 73 31 12 24.1 100.45   -13 LegendNANA
18:00 Legend Double Dagger -7.7 -11.9 72 32 15 24.1 100.46   -14 Cloudy
19:00 Legend Double Dagger -7.5 -11.7 72 33 16 24.1 100.47   -14 LegendNANA
20:00 Legend Double Dagger -7.5 -11.4 74 35 14 24.1 100.47   -13 LegendNANA
21:00 Legend Double Dagger -7.6 -11.1 76 32 10 24.1 100.45   -12 Mostly Cloudy
22:00 Legend Double Dagger -7.8 -11.2 77 31 9 24.1 100.46   -12 LegendNANA
23:00 Legend Double Dagger -7.3 -10.5 78 30 13 24.1 100.45   -13 LegendNANA

Notes on Data Quality.

Legend

  • E = Estimated
  • M = Missing
  • NA = Not Available
  • ‡ = Partner data that is not subject to review by the National Climate Archives
Date modified: